カタログに戻る

STARLINK-6076

運用中通信VLEO
NORAD 56100·PAYLOAD·🇺🇸 United States

打ち上げ Mar 29, 2023 から Cape Canaveral Space Force Station

Loading…

次のパス (今後24時間)

TLE

最新Source: CelesTrak SupGP

元期: Sep 15, 2026, 02:53 UTC

1 56100C 23046H   26258.12062500  .00024813  00000+0  89884-3 0  2581
2 56100  43.0009 171.4100 0001481 269.4486 198.2517 15.27561180    17

AllMySatでSTARLINK-6076をリアルタイム追跡

Download on the App Store